Time,TemperatureF,DewpointF,PressureIn,WindDirection,WindDirectionDegrees,WindSpeedMPH,WindSpeedGustMPH,Humidity,HourlyPrecipIn,Conditions,Clouds,dailyrainin,SolarRadiationWatts/m^2,SoftwareType,DateUTC
2013-10-25 00:03:00,50.0,46.0,-100.00,NNE,19,2.0,3.0,85,0.00,,,0.00,0.000000,,2013-10-25 04:03:00,
2013-10-25 00:24:00,50.0,46.0,-100.00,NNE,19,2.0,3.0,85,0.00,,,0.00,0.000000,,2013-10-25 04:24:00,
2013-10-25 00:34:00,50.0,46.0,-100.00,NNE,19,2.0,3.0,85,0.00,,,0.00,0.000000,,2013-10-25 04:34:00,
2013-10-25 00:44:00,50.0,46.0,-100.00,NNE,19,2.0,3.0,85,0.00,,,0.00,0.000000,,2013-10-25 04:44:00,
2013-10-25 00:54:00,50.0,46.0,-100.00,NNE,19,2.0,3.0,85,0.00,,,0.00,0.000000,,2013-10-25 04:54:00,
2013-10-25 01:42:00,49.0,45.0,-100.00,NW,326,1.0,2.0,87,0.00,,,0.00,0.000000,,2013-10-25 05:42:00,
2013-10-25 01:51:00,49.0,45.0,-100.00,NW,326,1.0,2.0,87,0.00,,,0.00,0.000000,,2013-10-25 05:51:00,
2013-10-25 02:01:00,49.0,45.0,-100.00,NW,326,1.0,2.0,87,0.00,,,0.00,0.000000,,2013-10-25 06:01:00,
2013-10-25 02:41:00,49.0,45.0,-100.00,NNE,26,3.0,3.0,85,0.00,,,0.00,0.000000,,2013-10-25 06:41:00,
2013-10-25 02:51:00,49.0,45.0,-100.00,NNE,26,3.0,3.0,85,0.00,,,0.00,0.000000,,2013-10-25 06:51:00,
2013-10-25 03:01:00,49.0,45.0,-100.00,NNE,26,3.0,3.0,85,0.00,,,0.00,0.000000,,2013-10-25 07:01:00,
2013-10-25 03:41:00,48.0,43.0,-100.00,NNW,347,2.0,4.0,83,0.00,,,0.00,0.000000,,2013-10-25 07:41:00,
2013-10-25 03:51:00,48.0,43.0,-100.00,NNW,347,2.0,4.0,83,0.00,,,0.00,0.000000,,2013-10-25 07:51:00,
2013-10-25 04:01:00,48.0,43.0,-100.00,NNW,347,2.0,4.0,83,0.00,,,0.00,0.000000,,2013-10-25 08:01:00,
2013-10-25 04:21:00,48.0,42.0,-100.00,North,3,4.0,6.0,81,0.00,,,0.00,0.000000,,2013-10-25 08:21:00,
2013-10-25 04:31:00,48.0,42.0,-100.00,North,3,4.0,6.0,81,0.00,,,0.00,0.000000,,2013-10-25 08:31:00,
2013-10-25 04:41:00,48.0,42.0,-100.00,North,3,4.0,6.0,81,0.00,,,0.00,0.000000,,2013-10-25 08:41:00,
2013-10-25 04:51:00,48.0,42.0,-100.00,North,3,4.0,6.0,81,0.00,,,0.00,0.000000,,2013-10-25 08:51:00,
2013-10-25 05:01:00,48.0,42.0,-100.00,North,3,4.0,6.0,81,0.00,,,0.00,0.000000,,2013-10-25 09:01:00,
2013-10-25 05:42:00,49.0,42.0,-100.00,North,4,7.0,11.0,77,0.00,,,0.00,0.000000,,2013-10-25 09:42:00,
2013-10-25 05:52:00,49.0,42.0,-100.00,North,4,7.0,11.0,77,0.00,,,0.00,0.000000,,2013-10-25 09:52:00,
2013-10-25 06:01:00,49.0,42.0,-100.00,North,4,7.0,11.0,77,0.00,,,0.00,0.000000,,2013-10-25 10:01:00,
2013-10-25 06:22:00,48.0,41.0,-100.00,North,357,7.0,10.0,78,0.00,,,0.00,0.000000,,2013-10-25 10:22:00,
2013-10-25 06:32:00,48.0,41.0,-100.00,North,357,7.0,10.0,78,0.00,,,0.00,0.000000,,2013-10-25 10:32:00,
2013-10-25 06:41:00,48.0,41.0,-100.00,North,357,7.0,10.0,78,0.00,,,0.00,0.000000,,2013-10-25 10:41:00,
2013-10-25 06:52:00,48.0,41.0,-100.00,North,357,7.0,10.0,78,0.00,,,0.00,0.000000,,2013-10-25 10:52:00,
2013-10-25 07:02:00,48.0,41.0,-100.00,North,357,7.0,10.0,78,0.00,,,0.00,0.000000,,2013-10-25 11:02:00,
2013-10-25 07:41:00,47.0,41.0,-100.00,North,356,6.0,11.0,80,0.00,,,0.00,0.000000,,2013-10-25 11:41:00,
2013-10-25 07:51:00,47.0,41.0,-100.00,North,356,6.0,11.0,80,0.00,,,0.00,0.000000,,2013-10-25 11:51:00,
2013-10-25 08:01:00,47.0,41.0,-100.00,North,356,6.0,11.0,80,0.00,,,0.00,0.000000,,2013-10-25 12:01:00,
2013-10-25 08:41:00,45.0,40.0,-100.00,North,353,7.0,12.0,82,0.00,,,0.00,4.000000,,2013-10-25 12:41:00,
2013-10-25 08:51:00,45.0,40.0,-100.00,North,353,7.0,12.0,82,0.00,,,0.00,4.000000,,2013-10-25 12:51:00,
2013-10-25 09:02:00,45.0,40.0,-100.00,North,353,7.0,12.0,82,0.00,,,0.00,4.000000,,2013-10-25 13:02:00,
2013-10-25 09:42:00,48.0,36.0,-100.00,NNW,347,10.0,15.0,64,0.00,,,0.00,159.000000,,2013-10-25 13:42:00,
2013-10-25 09:52:00,48.0,36.0,-100.00,NNW,347,10.0,15.0,64,0.00,,,0.00,159.000000,,2013-10-25 13:52:00,
2013-10-25 10:02:00,48.0,36.0,-100.00,NNW,347,10.0,15.0,64,0.00,,,0.00,159.000000,,2013-10-25 14:02:00,
2013-10-25 10:22:00,50.0,33.0,-100.00,North,358,10.0,15.0,52,0.00,,,0.00,425.000000,,2013-10-25 14:22:00,
2013-10-25 10:32:00,50.0,33.0,-100.00,North,358,10.0,15.0,52,0.00,,,0.00,425.000000,,2013-10-25 14:32:00,
2013-10-25 10:42:00,50.0,33.0,-100.00,North,358,10.0,15.0,52,0.00,,,0.00,425.000000,,2013-10-25 14:42:00,
2013-10-25 10:52:00,50.0,33.0,-100.00,North,358,10.0,15.0,52,0.00,,,0.00,425.000000,,2013-10-25 14:52:00,
2013-10-25 11:01:00,50.0,33.0,-100.00,North,358,10.0,15.0,52,0.00,,,0.00,425.000000,,2013-10-25 15:01:00,
2013-10-25 11:03:00,54.0,31.0,-100.00,North,3,6.0,14.0,42,0.00,,,0.00,665.000000,,2013-10-25 15:03:00,
2013-10-25 11:22:00,54.0,31.0,-100.00,North,3,6.0,14.0,42,0.00,,,0.00,665.000000,,2013-10-25 15:22:00,
2013-10-25 11:33:00,54.0,31.0,-100.00,North,3,6.0,14.0,42,0.00,,,0.00,665.000000,,2013-10-25 15:33:00,
2013-10-25 11:43:00,54.0,31.0,-100.00,North,3,6.0,14.0,42,0.00,,,0.00,665.000000,,2013-10-25 15:43:00,
2013-10-25 11:53:00,54.0,31.0,-100.00,North,3,6.0,14.0,42,0.00,,,0.00,665.000000,,2013-10-25 15:53:00,
2013-10-25 12:03:00,57.0,29.0,-100.00,North,3,7.0,12.0,34,0.00,,,0.00,841.000000,,2013-10-25 16:03:00,
2013-10-25 12:43:00,57.0,29.0,-100.00,North,3,7.0,12.0,34,0.00,,,0.00,841.000000,,2013-10-25 16:43:00,
2013-10-25 12:53:00,57.0,29.0,-100.00,North,3,7.0,12.0,34,0.00,,,0.00,841.000000,,2013-10-25 16:53:00,
2013-10-25 13:23:00,59.0,23.0,-100.00,WNW,302,9.0,14.0,25,0.00,,,0.00,949.000000,,2013-10-25 17:23:00,
2013-10-25 13:33:00,59.0,23.0,-100.00,WNW,302,9.0,14.0,25,0.00,,,0.00,949.000000,,2013-10-25 17:33:00,
2013-10-25 13:43:00,59.0,23.0,-100.00,WNW,302,9.0,14.0,25,0.00,,,0.00,949.000000,,2013-10-25 17:43:00,
2013-10-25 13:52:00,59.0,23.0,-100.00,WNW,302,9.0,14.0,25,0.00,,,0.00,949.000000,,2013-10-25 17:52:00,
2013-10-25 14:02:00,59.0,23.0,-100.00,WNW,302,9.0,14.0,25,0.00,,,0.00,949.000000,,2013-10-25 18:02:00,
2013-10-25 14:42:00,62.0,24.0,-100.00,NNW,346,8.0,15.0,23,0.00,,,0.00,977.000000,,2013-10-25 18:42:00,
2013-10-25 14:52:00,62.0,24.0,-100.00,NNW,346,8.0,15.0,23,0.00,,,0.00,977.000000,,2013-10-25 18:52:00,
2013-10-25 15:02:00,62.0,24.0,-100.00,NNW,346,8.0,15.0,23,0.00,,,0.00,977.000000,,2013-10-25 19:02:00,
2013-10-25 15:42:00,63.0,21.0,-100.00,NNW,346,10.0,19.0,20,0.00,,,0.00,918.000000,,2013-10-25 19:42:00,
2013-10-25 15:52:00,63.0,21.0,-100.00,NNW,346,10.0,19.0,20,0.00,,,0.00,918.000000,,2013-10-25 19:52:00,
2013-10-25 16:02:00,63.0,21.0,-100.00,NNW,346,10.0,19.0,20,0.00,,,0.00,918.000000,,2013-10-25 20:02:00,
2013-10-25 16:22:00,64.0,22.0,-100.00,North,10,10.0,18.0,20,0.00,,,0.00,776.000000,,2013-10-25 20:22:00,
2013-10-25 16:32:00,64.0,22.0,-100.00,North,10,10.0,18.0,20,0.00,,,0.00,776.000000,,2013-10-25 20:32:00,
2013-10-25 16:42:00,64.0,22.0,-100.00,North,10,10.0,18.0,20,0.00,,,0.00,776.000000,,2013-10-25 20:42:00,
2013-10-25 16:52:00,64.0,22.0,-100.00,North,10,10.0,18.0,20,0.00,,,0.00,776.000000,,2013-10-25 20:52:00,
2013-10-25 17:02:00,64.0,22.0,-100.00,North,10,10.0,18.0,20,0.00,,,0.00,776.000000,,2013-10-25 21:02:00,
2013-10-25 17:03:00,63.0,20.0,-100.00,North,7,9.0,18.0,19,0.00,,,0.00,569.000000,,2013-10-25 21:03:00,
2013-10-25 17:43:00,63.0,20.0,-100.00,North,7,9.0,18.0,19,0.00,,,0.00,569.000000,,2013-10-25 21:43:00,
2013-10-25 17:54:00,63.0,20.0,-100.00,North,7,9.0,18.0,19,0.00,,,0.00,569.000000,,2013-10-25 21:54:00,
2013-10-25 18:03:00,61.0,23.0,-100.00,NNW,347,9.0,14.0,23,0.00,,,0.00,319.000000,,2013-10-25 22:03:00,
2013-10-25 18:42:00,61.0,23.0,-100.00,NNW,347,9.0,14.0,23,0.00,,,0.00,319.000000,,2013-10-25 22:42:00,
2013-10-25 18:53:00,61.0,23.0,-100.00,NNW,347,9.0,14.0,23,0.00,,,0.00,319.000000,,2013-10-25 22:53:00,
2013-10-25 19:23:00,54.0,28.0,-100.00,North,8,4.0,10.0,36,0.00,,,0.00,71.000000,,2013-10-25 23:23:00,
2013-10-25 19:34:00,54.0,28.0,-100.00,North,8,4.0,10.0,36,0.00,,,0.00,71.000000,,2013-10-25 23:34:00,
2013-10-25 19:42:00,54.0,28.0,-100.00,North,8,4.0,10.0,36,0.00,,,0.00,71.000000,,2013-10-25 23:42:00,
2013-10-25 19:52:00,54.0,28.0,-100.00,North,8,4.0,10.0,36,0.00,,,0.00,71.000000,,2013-10-25 23:52:00,
2013-10-25 20:02:00,54.0,28.0,-100.00,North,8,4.0,10.0,36,0.00,,,0.00,71.000000,,2013-10-26 00:02:00,
2013-10-25 20:22:00,47.0,32.0,-100.00,NE,40,3.0,5.0,56,0.00,,,0.00,0.000000,,2013-10-26 00:22:00,
2013-10-25 20:32:00,47.0,32.0,-100.00,NE,40,3.0,5.0,56,0.00,,,0.00,0.000000,,2013-10-26 00:32:00,
2013-10-25 20:42:00,47.0,32.0,-100.00,NE,40,3.0,5.0,56,0.00,,,0.00,0.000000,,2013-10-26 00:42:00,
2013-10-25 20:52:00,47.0,32.0,-100.00,NE,40,3.0,5.0,56,0.00,,,0.00,0.000000,,2013-10-26 00:52:00,
2013-10-25 21:01:00,47.0,32.0,-100.00,NE,40,3.0,5.0,56,0.00,,,0.00,0.000000,,2013-10-26 01:01:00,
2013-10-25 21:42:00,43.0,30.0,-100.00,NNE,27,3.0,5.0,59,0.00,,,0.00,0.000000,,2013-10-26 01:42:00,
2013-10-25 21:52:00,43.0,30.0,-100.00,NNE,27,3.0,5.0,59,0.00,,,0.00,0.000000,,2013-10-26 01:52:00,
2013-10-25 22:02:00,43.0,30.0,-100.00,NNE,27,3.0,5.0,59,0.00,,,0.00,0.000000,,2013-10-26 02:02:00,
2013-10-25 22:43:00,42.0,31.0,-100.00,NNE,19,2.0,5.0,64,0.00,,,0.00,0.000000,,2013-10-26 02:43:00,
2013-10-25 22:52:00,42.0,31.0,-100.00,NNE,19,2.0,5.0,64,0.00,,,0.00,0.000000,,2013-10-26 02:52:00,
2013-10-25 23:02:00,42.0,31.0,-100.00,NNE,19,2.0,5.0,64,0.00,,,0.00,0.000000,,2013-10-26 03:02:00,
2013-10-25 23:03:00,42.0,30.0,-100.00,NNE,29,4.0,5.0,61,0.00,,,0.00,0.000000,,2013-10-26 03:03:00,
2013-10-25 23:22:00,42.0,30.0,-100.00,NNE,29,4.0,5.0,61,0.00,,,0.00,0.000000,,2013-10-26 03:22:00,
2013-10-25 23:35:00,42.0,30.0,-100.00,NNE,29,4.0,5.0,61,0.00,,,0.00,0.000000,,2013-10-26 03:35:00,
2013-10-25 23:45:00,42.0,30.0,-100.00,NNE,29,4.0,5.0,61,0.00,,,0.00,0.000000,,2013-10-26 03:45:00,
2013-10-25 23:54:00,42.0,30.0,-100.00,NNE,29,4.0,5.0,61,0.00,,,0.00,0.000000,,2013-10-26 03:54:00,